Blattenbach Aussen Messungen

Zurück zum Überblick

Zeitpunkt Temperatur Temperatur Kabelsensor Luftfeuchte
21.10.2018 16:04:50 14,2 C 14,3 C 75,0%
21.10.2018 15:57:47 14,3 C 14,3 C 75,0%
21.10.2018 15:50:49 14,3 C 14,3 C 75,0%
21.10.2018 15:43:51 14,3 C 14,3 C 75,0%
21.10.2018 15:36:48 14,5 C 14,3 C 75,0%
21.10.2018 15:29:49 14,5 C 14,3 C 75,0%
21.10.2018 15:22:49 14,5 C 14,2 C 75,0%
21.10.2018 15:15:34 14,5 C 14,2 C 75,0%
21.10.2018 15:08:34 14,5 C 14,2 C 75,0%
21.10.2018 15:01:35 14,4 C 14,2 C 75,0%
21.10.2018 14:54:35 14,5 C 14,2 C 75,0%
21.10.2018 14:47:35 14,6 C 14,1 C 75,0%
21.10.2018 14:40:32 14,4 C 14,0 C 75,0%
21.10.2018 14:33:37 14,4 C 14,0 C 75,0%
21.10.2018 14:26:34 14,4 C 14,0 C 76,0%
21.10.2018 14:19:34 14,4 C 14,0 C 76,0%
21.10.2018 14:12:35 14,3 C 13,9 C 76,0%
21.10.2018 14:05:35 14,2 C 13,9 C 76,0%
21.10.2018 13:58:32 14,1 C 13,9 C 76,0%
21.10.2018 13:51:36 14,2 C 13,9 C 76,0%
21.10.2018 13:44:33 14,0 C 13,8 C 76,0%
21.10.2018 13:37:35 13,9 C 13,8 C 76,0%
21.10.2018 13:30:32 14,0 C 13,8 C 76,0%
21.10.2018 13:23:33 14,3 C 13,7 C 75,0%
21.10.2018 13:16:32 14,2 C 13,7 C 76,0%
21.10.2018 13:09:34 14,3 C 13,7 C 76,0%
21.10.2018 13:02:36 14,2 C 13,6 C 76,0%
21.10.2018 12:55:35 14,4 C 13,6 C 76,0%
21.10.2018 12:48:21 14,1 C 13,5 C 76,0%
21.10.2018 12:41:19 14,1 C 13,5 C 76,0%
21.10.2018 12:34:18 14,0 C 13,5 C 76,0%
21.10.2018 12:27:20 14,0 C 13,5 C 76,0%
21.10.2018 12:20:17 13,8 C 13,4 C 77,0%
21.10.2018 12:13:21 13,6 C 13,4 C 77,0%
21.10.2018 12:06:18 13,7 C 13,4 C 77,0%
21.10.2018 11:59:18 13,8 C 13,4 C 77,0%
21.10.2018 11:52:18 13,8 C 13,3 C 77,0%
21.10.2018 11:45:19 14,0 C 13,3 C 77,0%
21.10.2018 11:38:21 13,7 C 13,3 C 78,0%
21.10.2018 11:31:18 13,7 C 13,3 C 78,0%
21.10.2018 11:24:21 13,7 C 13,3 C 78,0%
21.10.2018 11:17:20 13,7 C 13,3 C 77,0%
21.10.2018 11:10:20 14,0 C 13,2 C 78,0%
21.10.2018 11:03:19 13,8 C 13,2 C 78,0%
21.10.2018 10:56:17 13,6 C 13,2 C 78,0%
21.10.2018 10:49:19 13,4 C 13,1 C 79,0%
21.10.2018 10:42:19 12,8 C 13,1 C 80,0%
21.10.2018 10:35:18 12,6 C 13,0 C 81,0%
21.10.2018 10:28:19 12,2 C 13,0 C 82,0%
21.10.2018 10:21:20 11,7 C 13,0 C 82,0%